Regional Weather Roundup
Issued by NWS Glasgow, MT

Home | Current Version | Previous Version | Text Only | Print | Product List | Glossary On
Versions: 1 2 3 4 5 6 7 8 9 10 11 12 13 14 15 16 17 18 19 20 21 22 23 24 25 26 27
000
ASUS45 KGGW 240015
RWRGGW
HOURLY REGIONAL WEATHER ROUNDUP FOR NORTHEAST MONTANA
NATIONAL WEATHER SERVICE GLASGOW MONTANA
600 PM MDT MON OCT 23 2017

NOTE: "FAIR" INDICATES FEW OR NO CLOUDS BELOW 12,000 FEET WITH NO
SIGNIFICANT WEATHER AND/OR OBSTRUCTIONS TO VISISBILITY.

NORTHEAST MONTANA


CITY           SKY/WX    TMP DP  RH WIND       PRES   REMARKS
GLASGOW        CLEAR     52  21  29 NW21G29   30.42R
6HR MIN TEMP:  52; 6HR MAX TEMP:  60;

WOLF POINT     CLEAR     54  22  28 NW18G24   30.39R
JORDAN           N/A     51  24  34 N14       30.45R
WINNETT          N/A     50  18  28 W16G32      N/A
SIDNEY         CLEAR     51  27  39 NW15      30.35R
GLENDIVE       CLEAR     52  23  32 NW21G30   30.38R

FORT PECK REPORTS


CITY           SKY/WX    TMP DP  RH WIND       PRES   REMARKS
FORT PECK        N/A     54  25  32 W26G35      N/A
THE PINES        N/A     54  19  25 NW10G20     N/A

SOUTHEAST MONTANA


CITY           SKY/WX    TMP DP  RH WIND       PRES   REMARKS
BILLINGS       PTCLDY    52  21  29 NW9       30.52R
MILES CITY     CLEAR     54  24  31 NW18      30.44R
BAKER          CLEAR     50  26  39 NW21G30   30.38R
LIVINGSTON     CLOUDY    50  21  32 W16       30.56R

CENTRAL MONTANA


CITY           SKY/WX    TMP DP  RH WIND       PRES   REMARKS
HAVRE          CLEAR     52  22  30 NW6       30.48S
LEWISTOWN      CLEAR     48  19  31 NW8       30.52R
GREAT FALLS    CLEAR     51  18  27 W10       30.53S
CUT BANK       CLEAR     48  23  37 W15       30.51S
HELENA         CLEAR     51  25  36 NW10      30.58R
BUTTE          CLOUDY    47  24  40 NW9       30.62S
BOZEMAN        CLEAR     47  25  42 NW9       30.60R

WESTERN MONTANA


CITY           SKY/WX    TMP DP  RH WIND       PRES   REMARKS
MISSOULA       CLEAR     53  32  44 W9        30.66R
KALISPELL      NOT AVBL

NORTH DAKOTA


CITY           SKY/WX    TMP DP  RH WIND       PRES   REMARKS
WILLISTON      CLEAR     50  27  40 NW16      30.33R
DICKINSON      CLEAR     50  25  37 NW21G32   30.27R
MINOT          CLEAR     47  31  53 NW18      30.21R
BISMARCK       CLOUDY    52  30  43 NW23G39   30.21R

SOUTHERN SASKATCHEWAN


CITY           SKY/WX    TMP DP  RH WIND       PRES   REMARKS
REGINA         PTCLDY    46  30  53 NW17G25   30.31R
MOOSE JAW      CLEAR     46  32  57 NW16      30.35R
ESTEVAN        PTCLDY    45  27  49 NW17      30.27R
SWIFT CURRENT  CLEAR     46  25  42 NW18      30.39R





USA.gov is the U.S. government's official web portal to all federal, state and local government web resources and services.